Welcome to Des Moines Iowa Weather. I am an independent private personal weather station on the Northwest Side of Des Moines, Iowa. Just East of Windsor Heights and just West of Glendale . This site is also mobile friendly.

There are no active watches, warnings or advisories


Visit our other weather sites:

Historical Data

Weather Station Setup



Weather Underground History page Text

Daily Summary for January 16, 2018 Units:  English    Metric   Both
« Previous Day
Next Day »
Daily Weekly Monthly Yearly Custom
  High: Low: Average:
Temperature: 6.1 °F -6.0 °F -0.1 °F
Dew Point: 0.0 °F -12.0 °F -4.9 °F
Humidity: 86 % 74 % 80 %
Wind Speed: 10.0 mph 0.0 mph 2.8 mph
Wind Gust: 16.0 mph - -
Wind:- - WNW
Pressure: 30.84 in 30.71 in -
Precipitation: 0.00 in    
Historical Graphs
 
 
Tabular Data for January 16, 2018
Time Temperature Dew Point Pressure Wind Wind Speed Wind Gust Humidity Rainfall Rate (Hourly)
00:10 -5.5 °F -12.0 °F 30.71 in WNW 3.0 mph 16.0 mph 75 % 0.00 in
00:25 -5.6 °F -12.0 °F 30.72 in NW 10.0 mph 13.0 mph 75 % 0.00 in
00:40 -5.7 °F -11.0 °F 30.71 in NNW 5.0 mph 10.0 mph 76 % 0.00 in
00:55 -5.8 °F -12.0 °F 30.72 in NW 3.0 mph 12.0 mph 76 % 0.00 in
01:10 -5.9 °F -12.0 °F 30.71 in North 4.0 mph 11.0 mph 76 % 0.00 in
01:25 -5.9 °F -12.0 °F 30.72 in North 3.0 mph 9.0 mph 76 % 0.00 in
01:40 -6.0 °F -11.0 °F 30.72 in North 6.0 mph 9.0 mph 77 % 0.00 in
01:55 -6.0 °F -11.0 °F 30.72 in NW 7.0 mph 11.0 mph 77 % 0.00 in
02:10 -6.0 °F -11.0 °F 30.73 in NW 3.0 mph 9.0 mph 78 % 0.00 in
02:26 -6.0 °F -11.0 °F 30.73 in NW 1.0 mph 9.0 mph 78 % 0.00 in
02:41 -6.0 °F -11.0 °F 30.73 in NW 6.0 mph 9.0 mph 78 % 0.00 in
02:56 -5.9 °F -11.0 °F 30.73 in NNW 9.0 mph 11.0 mph 78 % 0.00 in
03:11 -5.8 °F -11.0 °F 30.74 in NW 5.0 mph 12.0 mph 78 % 0.00 in
03:26 -5.2 °F -10.0 °F 30.74 in NNW 8.0 mph 10.0 mph 78 % 0.00 in
03:41 -4.5 °F -9.0 °F 30.74 in NW 4.0 mph 11.0 mph 79 % 0.00 in
03:56 -4.1 °F -9.0 °F 30.75 in NW 3.0 mph 10.0 mph 79 % 0.00 in
04:11 -3.7 °F -9.0 °F 30.74 in NW 6.0 mph 10.0 mph 79 % 0.00 in
04:26 -3.5 °F -9.0 °F 30.75 in WNW 5.0 mph 14.0 mph 79 % 0.00 in
04:42 -3.9 °F -9.0 °F 30.75 in NW 6.0 mph 12.0 mph 78 % 0.00 in
04:56 -4.2 °F -9.0 °F 30.76 in WNW 1.0 mph 15.0 mph 78 % 0.00 in
05:12 -4.3 °F -10.0 °F 30.76 in NW 4.0 mph 13.0 mph 78 % 0.00 in
05:27 -4.4 °F -9.0 °F 30.76 in WNW 2.0 mph 11.0 mph 79 % 0.00 in
05:42 -4.3 °F -9.0 °F 30.77 in NW 2.0 mph 10.0 mph 79 % 0.00 in
05:57 -4.3 °F -9.0 °F 30.77 in NW 2.0 mph 12.0 mph 81 % 0.00 in
06:27 -4.1 °F -8.0 °F 30.78 in WNW 5.0 mph 10.0 mph 82 % 0.00 in
06:42 -4.1 °F -8.0 °F 30.77 in WNW 4.0 mph 9.0 mph 82 % 0.00 in
06:57 -4.1 °F -8.0 °F 30.77 in WNW 4.0 mph 9.0 mph 82 % 0.00 in
07:12 -4.3 °F -8.0 °F 30.77 in NW 3.0 mph 10.0 mph 82 % 0.00 in
07:27 -4.0 °F -8.0 °F 30.78 in WNW 5.0 mph 11.0 mph 82 % 0.00 in
07:42 -3.4 °F -8.0 °F 30.78 in North 6.0 mph 12.0 mph 82 % 0.00 in
07:57 -3.0 °F -7.0 °F 30.79 in NW 4.0 mph 14.0 mph 82 % 0.00 in
08:12 -2.9 °F -7.0 °F 30.79 in NW 5.0 mph 12.0 mph 81 % 0.00 in
08:27 -2.8 °F -7.0 °F 30.80 in North 3.0 mph 10.0 mph 81 % 0.00 in
08:42 -2.7 °F -7.0 °F 30.80 in NW 1.0 mph 11.0 mph 81 % 0.00 in
08:58 -2.4 °F -7.0 °F 30.81 in WNW 3.0 mph 9.0 mph 81 % 0.00 in
09:13 -1.9 °F -6.0 °F 30.82 in North 2.0 mph 12.0 mph 81 % 0.00 in
09:28 -1.5 °F -6.0 °F 30.82 in WNW 2.0 mph 10.0 mph 81 % 0.00 in
09:43 -0.9 °F -5.0 °F 30.83 in NW 7.0 mph 10.0 mph 82 % 0.00 in
09:58 -0.2 °F -4.0 °F 30.83 in NW 6.0 mph 11.0 mph 83 % 0.00 in
10:13 0.5 °F -4.0 °F 30.83 in NW 5.0 mph 8.0 mph 83 % 0.00 in
10:28 0.8 °F -4.0 °F 30.83 in NW 2.0 mph 13.0 mph 81 % 0.00 in
10:43 1.8 °F -3.0 °F 30.84 in NW 4.0 mph 10.0 mph 79 % 0.00 in
10:58 2.3 °F -3.0 °F 30.83 in North 3.0 mph 11.0 mph 77 % 0.00 in
11:13 3.0 °F -3.0 °F 30.83 in NW 2.0 mph 11.0 mph 77 % 0.00 in
11:28 2.9 °F -3.0 °F 30.82 in WNW 2.0 mph 9.0 mph 76 % 0.00 in
11:43 3.7 °F -2.0 °F 30.82 in WNW 2.0 mph 10.0 mph 76 % 0.00 in
11:58 4.4 °F -2.0 °F 30.81 in NW 4.0 mph 8.0 mph 76 % 0.00 in
12:14 5.5 °F -1.0 °F 30.80 in NW 4.0 mph 8.0 mph 76 % 0.00 in
12:29 5.4 °F -1.0 °F 30.80 in NW 3.0 mph 9.0 mph 74 % 0.00 in
12:44 6.0 °F 0.0 °F 30.79 in NW 3.0 mph 6.0 mph 75 % 0.00 in
12:59 6.1 °F 0.0 °F 30.79 in North 1.0 mph 9.0 mph 75 % 0.00 in
13:14 6.0 °F 0.0 °F 30.79 in SW 3.0 mph 10.0 mph 75 % 0.00 in
13:29 6.0 °F 0.0 °F 30.79 in North 3.0 mph 10.0 mph 76 % 0.00 in
13:44 5.5 °F 0.0 °F 30.79 in North 5.0 mph 15.0 mph 77 % 0.00 in
13:59 5.8 °F 0.0 °F 30.79 in NW 5.0 mph 12.0 mph 78 % 0.00 in
14:14 5.5 °F 0.0 °F 30.79 in NW 5.0 mph 11.0 mph 79 % 0.00 in
14:29 5.4 °F 0.0 °F 30.79 in NW 3.0 mph 12.0 mph 78 % 0.00 in
14:44 5.5 °F 0.0 °F 30.79 in West 2.0 mph 8.0 mph 78 % 0.00 in
14:59 5.3 °F 0.0 °F 30.79 in NW 5.0 mph 10.0 mph 78 % 0.00 in
15:14 5.4 °F 0.0 °F 30.79 in NW 2.0 mph 7.0 mph 78 % 0.00 in
15:29 5.4 °F 0.0 °F 30.79 in NW 2.0 mph 10.0 mph 78 % 0.00 in
15:45 4.9 °F -1.0 °F 30.79 in NW 3.0 mph 12.0 mph 78 % 0.00 in
16:00 4.9 °F 0.0 °F 30.79 in NW 1.0 mph 7.0 mph 79 % 0.00 in
16:15 5.0 °F 0.0 °F 30.79 in NW 8.0 mph 8.0 mph 79 % 0.00 in
16:30 4.8 °F 0.0 °F 30.79 in WNW 2.0 mph 8.0 mph 79 % 0.00 in
16:45 4.6 °F 0.0 °F 30.79 in NW 3.0 mph 9.0 mph 80 % 0.00 in
17:00 4.2 °F -1.0 °F 30.79 in NW 1.0 mph 4.0 mph 80 % 0.00 in
17:15 3.8 °F -1.0 °F 30.79 in NW 2.0 mph 8.0 mph 80 % 0.00 in
17:30 3.5 °F -1.0 °F 30.79 in NW 2.0 mph 3.0 mph 80 % 0.00 in
17:45 3.2 °F -1.0 °F 30.79 in NW 1.0 mph 3.0 mph 81 % 0.00 in
18:00 2.9 °F -2.0 °F 30.79 in Calm   4.0 mph 81 % 0.00 in
18:15 2.6 °F -2.0 °F 30.79 in Calm   3.0 mph 81 % 0.00 in
18:30 2.3 °F -2.0 °F 30.79 in Calm   1.0 mph 82 % 0.00 in
18:45 2.0 °F -2.0 °F 30.79 in Calm   2.0 mph 82 % 0.00 in
19:01 1.8 °F -3.0 °F 30.78 in Calm     82 % 0.00 in
19:16 1.5 °F -3.0 °F 30.79 in Calm   1.0 mph 83 % 0.00 in
19:31 1.2 °F -3.0 °F 30.79 in Calm     83 % 0.00 in
19:46 1.0 °F -3.0 °F 30.78 in Calm     83 % 0.00 in
20:01 0.7 °F -3.0 °F 30.77 in Calm     83 % 0.00 in
20:16 0.4 °F -4.0 °F 30.77 in Calm     83 % 0.00 in
20:31 0.2 °F -4.0 °F 30.77 in Calm     84 % 0.00 in
20:46 0.1 °F -4.0 °F 30.77 in Calm     84 % 0.00 in
21:01 0.1 °F -3.0 °F 30.77 in Calm     85 % 0.00 in
21:16 0.2 °F -3.0 °F 30.77 in Calm     85 % 0.00 in
21:31 0.2 °F -3.0 °F 30.77 in Calm   2.0 mph 85 % 0.00 in
21:46 0.4 °F -3.0 °F 30.76 in Calm     85 % 0.00 in
22:01 0.4 °F -3.0 °F 30.76 in Calm     85 % 0.00 in
22:17 0.4 °F -3.0 °F 30.75 in Calm     86 % 0.00 in
22:32 0.2 °F -3.0 °F 30.75 in Calm     85 % 0.00 in
22:47 0.0 °F -3.0 °F 30.75 in Calm     85 % 0.00 in
23:02 -0.3 °F -4.0 °F 30.75 in Calm     85 % 0.00 in
23:17 -0.5 °F -4.0 °F 30.75 in Calm     85 % 0.00 in
23:32 -0.6 °F -4.0 °F 30.74 in Calm     85 % 0.00 in
23:47 -0.7 °F -4.0 °F 30.74 in Calm     85 % 0.00 in
Des Moines Weather and Climate
Compliments of Weather Underground - 3 mb

Script developed by  Jim McMurry - jmcmurry@mwt.net Adapted for the template by  Wim van der Kuil - Leuven-Template.eu

You find our weather info also at:

Weather Underground

Equipment we use:

Weather-station
Davis VP2 Plus

Weather-program
Davis Weatherlink.Com

Weather-server
iMac (Retina 4K, 21.5-inch, Late 2015)

Provider
Hostmonster.com

Davis VP2 Plus

Davis Weatherlink.Com

iMac (Retina 4K, 21.5-inch, Late 2015)

Hostmonster.com